Regional Weather Roundup
Issued by NWS

Home | Current Version | Previous Version | Text Only | Print | Product List | Glossary Off
Versions: 1 2 3 4 5 6 7 8 9 10 11 12 13 14 15 16 17 18 19 20 21 22 23 24 25 26 27 28 29 30 31 32 33 34 35 36 37 38 39 40 41 42 43 44 45 46 47 48 49 50

000
ASUS43 KDMX 301307
RWRIA

WEATHER ROUNDUP FOR IOWA
NATIONAL WEATHER SERVICE DES MOINES IA
800 AM CDT WED JUL 30 2014

NOTE: "FAIR" INDICATES FEW OR NO CLOUDS BELOW 12,000 FEET WITH NO
SIGNIFICANT WEATHER AND/OR OBSTRUCTIONS TO VISIBILITY.

* - THESE STATIONS ARE NOT NWS STATIONS...THUS NOT UNDER NWS
QUALITY CONTROL.  THEY ALSO DO NOT REPORT WEATHER SUCH
AS PRECIPITATION OR FOG.

IAZ001>003-012>014-020>022-031>034-043>046-301400-
   NORTHWEST IOWA

CITY           SKY/WX    TMP DP  RH WIND       PRES   REMARKS
CARROLL *      SUNNY     59  57  94 CALM      30.14R
CHEROKEE *     SUNNY     54  54 100 CALM      30.16R
DENISON *      SUNNY     57  57 100 CALM      30.13S
LE MARS *      SUNNY     55  54  94 CALM      30.16S
ORANGE CITY *  SUNNY     63  55  77 CALM      30.16S
SHELDON *      SUNNY     55  55 100 CALM      30.15S
SIOUX CITY     SUNNY     60  57  89 NW3       30.15S
SPENCER        SUNNY     57  53  86 NW3       30.15R
STORM LAKE *   SUNNY     61  57  88 N3        30.16R
$$

IAZ055>058-069>071-079>083-090>094-301400-
   SOUTHWEST IOWA

CITY           SKY/WX    TMP DP  RH WIND       PRES   REMARKS
ATLANTIC *     SUNNY     57  54  88 CALM      30.14S
AUDUBON *      SUNNY     61  57  88 CALM      30.15S
CLARINDA *     SUNNY     57  57 100 CALM      30.15S
COUNCIL BLFS * SUNNY     61  61 100 CALM      30.13S
CRESTON *      SUNNY     61  57  88 NW3       30.14R
HARLAN  *      SUNNY     55  54  94 CALM      30.18S
LAMONI         SUNNY     62  56  80 N5        30.13R
RED OAK *      SUNNY     59  55  88 CALM      30.14S
SHENANDOAH *   SUNNY     57  55  94 CALM      30.15R
$$

IAZ047>049-059>061-072>074-084-301400-
   CENTRAL IOWA

CITY           SKY/WX    TMP DP  RH WIND       PRES   REMARKS
AMES           SUNNY     62  56  80 N5        30.12R
ANKENY *       SUNNY     63  57  82 NW6       30.12R
CHARITON *     SUNNY     61  57  88 NW6       30.12R
DES MOINES     MOSUNNY   63  56  78 NW3       30.11R
GRINNELL*      SUNNY     59  57  94 W3        30.11R
KNOXVILLE *    SUNNY     59  57  94 NW7       30.10R
MARSHALLTOWN   SUNNY     59  56  89 NW7       30.10R
PELLA *        SUNNY     63  59  88 W3        30.12R
PERRY *          N/A     59  57  94 CALM      30.13R
$$

IAZ004>006-015-016-023>025-035-036-301400-
   NORTH CENTRAL IOWA

CITY           SKY/WX    TMP DP  RH WIND       PRES   REMARKS
ALGONA *       SUNNY     61  57  88 NW6       30.13S
CLARION *      SUNNY     59  57  94 NW3       30.12S
ESTHERVILLE    SUNNY     59  55  87 NW7       30.14R
FORT DODGE *   SUNNY     57  54  88 NW5       30.13R
MASON CITY     SUNNY     61  57  87 NW7       30.13R
FOREST CITY *  SUNNY     61  55  82 CALM      30.12R
IOWA FALLS *     N/A     61  57  88 NW5       30.12R
$$

IAZ007>011-017>019-026>030-037>042-050>054-066-301400-
   NORTHEAST IOWA

CITY           SKY/WX    TMP DP  RH WIND       PRES   REMARKS
CEDAR RAPIDS   SUNNY     60  53  77 NW6       30.07S
CHARLES CITY * SUNNY     59  57  94 NW5       30.10S
CLINTON *      PTSUNNY   63  61  94 CALM      30.10R
DECORAH *      SUNNY     61  57  88 CALM      30.08R
DUBUQUE        SUNNY     64  58  80 CALM      30.08R
MONTICELLO *   SUNNY     61  59  94 N3        30.08R
OELWEIN *      SUNNY     61  57  88 N5        30.09S
WATERLOO       SUNNY     60  56  86 NW5       30.08S
$$

IAZ064-065-067-068-078-301400-
   EAST CENTRAL IOWA

CITY           SKY/WX    TMP DP  RH WIND       PRES   REMARKS
DAVENPORT      SUNNY     61  57  87 N3        30.08R
IOWA CITY      SUNNY     63  57  81 NW7       30.09R
MT. PLEASANT * SUNNY     64  57  77 W5        30.10R
MUSCATINE *    SUNNY     64  57  77 CALM      30.08R
QUAD CITIES    SUNNY     64  59  83 CALM      30.07R
$$

IAZ062-063-075>077-085>089-095>099-301400-
   SOUTHEAST IOWA

CITY           SKY/WX    TMP DP  RH WIND       PRES   REMARKS
BURLINGTON     SUNNY     62  59  90 W3        30.08R
FAIRFIELD *    SUNNY     63  59  88 W3        30.10R
FORT MADISON * SUNNY     64  61  88 W3        30.10R
KEOKUK *       SUNNY     64  61  88 CALM      30.09R
OSKALOOSA *      N/A     61  59  94 W5        30.11R
CENTERVILLE *  SUNNY     63  59  88 NW3       30.13R
OTTUMWA        SUNNY     61  58  90 W7        30.10R
WASHINGTON *   SUNNY     61  59  94 CALM      30.09R
$$

ABBREVIATIONS USED IN REMARKS
   TC - TEMPERATURES IN CELSIUS
  WCI - WIND CHILL INDEX
   HX - HEAT INDEX
  VSB - VISIBILITY
$$



USA.gov is the U.S. government's official web portal to all federal, state and local government web resources and services.